Flag for India Weather past 2 weeks in Kãnpur, Uttar Pradesh, India

Now
59 °F

Haze.


Feels Like: 59 °F
Forecast: 44 / 71 °F
Wind: 2 mph from North

Location: Lucknow / Amausi

Current Time: Jan 31, 2015 at 7:44:46 PM

Latest Report: Jan 31, 2015 at 7:00 PM


Visibility: 2 mi

Pressure: 30.01 "Hg

Humidity: 63%

Dew point: 46 °F

Location of KãnpurLocation

Historic Weather in Kãnpur — Graph

°F

Kãnpur temperature yesterday

Maximum temperature yesterday: 68 °F (at 4:00 PM)
Minimum temperature yesterday: 45 °F (at 8:00 AM)
Average temperature yesterday: 54 °F

Past Weeks' High & Low Weather Summary

 TemperatureHumidityPressure
High135 °F (Jan 24, 6:30 PM)100% (Jan 20, 11:00 PM)30.39 "Hg (Jan 20, 11:00 PM)
Low45 °F (Jan 21, 12:00 AM)8% (Jan 24, 6:30 PM)29.95 "Hg (Jan 28, 4:00 PM)
Average57 °F80%30.08 "Hg
* Reported Jan 16 6:30 PM — Jan 31 6:30 PM, Kãnpur, Weather by CustomWeather, © 2014

Note: Actual official high and low records may vary slightly from our data, if they occured in-between our weather recording intervals... More about our weather records

Advertising

Kãnpur weather history for previous 24 hours

 ConditionsComfort  
Time TempWeatherWind HumidityBarometerVisibility
6:30 PM
Jan 31
61 °FHaze.2 mph63%30.01 "Hg2 mi
6:00 PM64 °FHaze.2 mph56%30.01 "Hg2 mi
5:00 PM68 °FHaze.5 mph46%30.01 "Hg3 mi
4:30 PM68 °FHaze.5 mph43%30.01 "Hg3 mi
4:00 PM70 °FHaze.6 mph38%30.01 "Hg3 mi
3:30 PM70 °FHaze.7 mph38%30.01 "Hg3 mi
3:00 PM70 °FHaze.7 mph35%30.01 "Hg3 mi
2:30 PM70 °FHaze.9 mph35%30.01 "Hg3 mi
2:00 PM68 °FHaze.12 mph40%30.04 "Hg3 mi
1:30 PM68 °FHaze.12 mph40%30.04 "Hg3 mi
12:30 PM66 °FHaze.N/A43%30.07 "Hg3 mi
12:00 PM66 °FHaze.9 mph46%30.07 "Hg2 mi
11:30 AM64 °FHaze.8 mph46%30.09 "Hg2 mi
11:00 AM61 °FHaze.8 mph59%30.09 "Hg2 mi
10:30 AM59 °FHaze.9 mph59%30.09 "Hg2 mi
9:00 AM50 °FHaze.5 mph76%30.09 "Hg1 mi
8:30 AM48 °FFog.5 mph82%30.09 "Hg1 mi
8:00 AM46 °FFog.3 mph87%30.09 "Hg1 mi
7:30 AM48 °FFog.2 mph82%30.07 "Hg1 mi
7:00 AM48 °FFog.2 mph82%30.04 "Hg1 mi
6:30 AM48 °FFog.3 mph82%30.04 "Hg1 mi
6:00 AM48 °FFog.3 mph82%30.04 "Hg2 mi
5:30 AM48 °FFog.3 mph82%30.04 "Hg2 mi
5:00 AM50 °FFog.2 mph88%30.04 "Hg2 mi
4:00 AM50 °FFog.2 mph88%30.04 "Hg2 mi
3:00 AM50 °FFog.2 mph88%30.04 "Hg2 mi
1:00 AM52 °FFog.6 mph77%30.07 "Hg1 mi
12:00 AM52 °FFog.6 mph77%30.07 "Hg1 mi
11:00 PM
Jan 30
52 °FFog.7 mph77%30.07 "Hg1 mi
10:00 PM55 °FHaze.7 mph67%30.09 "Hg1 mi
9:00 PM55 °FHaze.5 mph63%30.09 "Hg1 mi
8:30 PM55 °FHaze.2 mph63%30.09 "Hg1 mi
7:30 PM55 °FHaze.2 mph63%30.07 "Hg2 mi
7:00 PM57 °FHaze.2 mph59%30.07 "Hg2 mi
Weather by CustomWeather, © 2014

See weather overviewHow to use our weather pages